Weather History for KEAU - August, 2012

Change the Weather History Date:

Saturday, August 11, 2012

  Actual Average Record
Temperature  
Mean Temperature 62 °F 70 °F  
Max Temperature 79 °F 81 °F 98 °F (1947)
Min Temperature 44 °F 59 °F 41 °F (1982)
Degree Days  
Heating Degree Days 3 1  
Month to date heating degree days 5 6  
Since 1 June heating degree days 33 79  
Since 1 July heating degree days 5 17  
Cooling Degree Days 0 6  
Month to date cooling degree days 57 66  
Year to date cooling degree days 671 432  
Since 1 June cooling degree days 601 400  
Growing Degree Days 11 (Base 50)    
Moisture  
Dew Point 48 °F    
Average Humidity 63    
Maximum Humidity 93    
Minimum Humidity 33    
Precipitation  
Precipitation 0.00 in 0.14 in 1.40 in (2014)
Month to date precipitation 1.13 1.64  
Year to date precipitation 18.23 19.29  
Snow  
Snow 0.00 in 0.00 in 0.00 in ()
Month to date snowfall 0.0 0.0  
Since 1 June snowfall 0.0 0.0  
Since 1 July snowfall 0.0 0.0  
Snow Depth 0.00 in    
Sea Level Pressure  
Sea Level Pressure 30.05 in    
Wind  
Wind Speed 3 mph (NNW)    
Max Wind Speed 12 mph    
Max Gust Speed 16 mph    
Visibility 10 miles    
Events      
T = Trace of Precipitation, MM = Missing Value Source: NWS Daily Summary

Daily Weather History Graph

Daily Weather History Graph

Search for Another Location

Airport or City:

Trip Planner

Search our weather history database for the weather conditions in past years. The results will help you decide how hot, cold, wet, or windy it might be!

Date:

Astronomy

Aug. 11, 2012 Rise Set
Actual Time 6:03 AM CDT 8:17 PM CDT
Civil Twilight 5:31 AM CDT 8:49 PM CDT
Nautical Twilight 4:51 AM CDT 9:29 PM CDT
Astronomical Twilight 4:06 AM CDT 10:13 PM CDT
Moon 12:28 AM CDT (8/11) 3:57 PM CDT (8/11)
Length of Visible Light 15h 18m
Length of Day
14h 13m
Waning Crescent, 32% of the Moon is Illuminated
Aug 11
Waning Crescent
Aug 17
New
Aug 24
First Quarter
Aug 31
Full
Sep 8
Last Quarter

Hourly Weather History & Observations

Time (CDT) Temp. Windchill Dew Point Humidity Pressure Visibility Wind Dir Wind Speed Gust Speed Precip Events Conditions
12:56 AM 50.0 °F - 45.0 °F 83% 30.07 in 10.0 mi Calm Calm - N/A   Clear
1:56 AM 46.9 °F - 44.1 °F 90% 30.08 in 10.0 mi North 3.5 mph - N/A   Clear
2:56 AM 46.0 °F 44.8 °F 43.0 °F 89% 30.09 in 10.0 mi North 3.5 mph - N/A   Clear
3:56 AM 48.0 °F - 46.0 °F 93% 30.09 in 10.0 mi Calm Calm - N/A   Clear
4:56 AM 45.0 °F - 43.0 °F 93% 30.10 in 10.0 mi Calm Calm - N/A   Clear
5:56 AM 46.0 °F - 44.1 °F 93% 30.10 in 10.0 mi Calm Calm - N/A   Clear
6:45 AM 46.4 °F - 44.6 °F 93% 30.10 in 2.5 mi Calm Calm - N/A   Clear
6:53 AM 48.2 °F - 46.4 °F 93% 30.09 in 10.0 mi Calm Calm - N/A   Clear
6:56 AM 48.0 °F - 46.0 °F 93% 30.09 in 10.0 mi Calm Calm - N/A   Clear
7:56 AM 53.1 °F - 48.9 °F 86% 30.11 in 10.0 mi Calm Calm - N/A   Clear
8:56 AM 60.1 °F - 46.9 °F 62% 30.11 in 10.0 mi Calm Calm - N/A   Clear
9:56 AM 66.0 °F - 46.9 °F 50% 30.11 in 10.0 mi WNW 3.5 mph - N/A   Clear
10:56 AM 70.0 °F - 46.0 °F 42% 30.09 in 10.0 mi Variable 3.5 mph - N/A   Clear
11:56 AM 73.0 °F - 46.9 °F 39% 30.06 in 10.0 mi North 9.2 mph - N/A   Clear
12:56 PM 75.0 °F - 48.0 °F 38% 30.04 in 10.0 mi North 9.2 mph - N/A   Clear
1:56 PM 75.9 °F - 48.0 °F 37% 30.04 in 10.0 mi North 6.9 mph - N/A   Clear
2:56 PM 77.0 °F - 48.9 °F 37% 30.02 in 10.0 mi NNW 9.2 mph - N/A   Clear
3:56 PM 77.0 °F - 46.9 °F 34% 30.01 in 10.0 mi Calm Calm - N/A   Clear
4:56 PM 77.0 °F - 46.9 °F 34% 30.00 in 10.0 mi Calm Calm - N/A   Clear
5:56 PM 75.9 °F - 48.9 °F 38% 30.00 in 10.0 mi NNW 4.6 mph - N/A   Clear
6:56 PM 72.0 °F - 52.0 °F 49% 29.99 in 10.0 mi Calm Calm - N/A   Clear
7:56 PM 68.0 °F - 55.0 °F 63% 29.99 in 10.0 mi West 3.5 mph - N/A   Clear
8:56 PM 66.0 °F - 54.0 °F 65% 29.99 in 10.0 mi NW 3.5 mph - N/A   Clear
9:56 PM 63.0 °F - 54.0 °F 72% 30.00 in 10.0 mi Calm Calm - N/A   Clear
10:56 PM 60.1 °F - 54.0 °F 80% 30.02 in 10.0 mi Calm Calm - N/A   Clear
11:56 PM 60.1 °F - 54.0 °F 80% 30.01 in 10.0 mi Calm Calm - N/A   Clear